Flag for Romania Weather past 2 weeks in Constanța, Romania

Now
42 °F

Partly sunny.


Feels Like: 39 °F
Forecast: 31 / 42 °F
Wind: 5 mph from Northeast

Location: Constanta

Current Time: Dec 26, 2014 at 10:52:58 AM

Latest Report: Dec 26, 2014 at 10:00 AM


Visibility: 6 mi

Pressure: 30.04 "Hg

Humidity: 88%

Dew point: 39 °F

Location of ConstanțaLocation

Historic Weather in Constanța — Graph

°F

Constanța temperature yesterday

Maximum temperature yesterday: 53 °F (at 2:00 PM)
Minimum temperature yesterday: 43 °F (at 7:00 PM)
Average temperature yesterday: 47 °F

Past Weeks' High & Low Weather Summary

 TemperatureHumidityPressure
High58 °F (Dec 24, 3:00 PM)100% (Dec 12, 9:00 PM)30.33 "Hg (Dec 12, 9:00 PM)
Low30 °F (Dec 13, 7:00 AM)44% (Dec 25, 4:00 AM)29.88 "Hg (Dec 17, 6:00 PM)
Average43 °F85%30.11 "Hg
* Reported Dec 11 9:00 AM — Dec 26 9:00 AM, Constanța, Weather by CustomWeather, © 2014

Note: Actual official high and low records may vary slightly from our data, if they occured in-between our weather recording intervals... More about our weather records

Advertising

Constanța weather history for previous 24 hours

 ConditionsComfort  
Time TempWeatherWind HumidityBarometerVisibility
9:00 AM
Dec 26
43 °FScattered clouds.5 mph89%30.03 "Hg6 mi
8:00 AM43 °FPartly sunny.5 mph87%30.03 "Hg6 mi
7:00 AM39 °FClear.1 mph97%30.03 "Hg6 mi
6:00 AM37 °FClear.1 mph93%30.03 "Hg6 mi
5:00 AM38 °FClear.1 mph93%30.02 "Hg6 mi
4:00 AM40 °FClear.1 mph90%30.03 "Hg6 mi
3:00 AM38 °FClear.1 mph92%30.04 "Hg6 mi
2:00 AM37 °FClear.1 mph93%30.03 "Hg6 mi
1:00 AM39 °FClear.1 mph89%30.04 "Hg6 mi
12:00 AM42 °FClear.2 mph84%30.05 "Hg6 mi
10:00 PM
Dec 25
43 °FClear.1 mph88%30.05 "Hg6 mi
9:00 PM43 °FClear.1 mph87%30.06 "Hg6 mi
8:00 PM43 °FClear.1 mph87%30.06 "Hg6 mi
7:00 PM43 °FClear.1 mph87%30.06 "Hg6 mi
6:00 PM46 °FPassing clouds.2 mph80%30.04 "Hg6 mi
5:00 PM47 °FPassing clouds.2 mph77%30.03 "Hg6 mi
4:00 PM50 °FPartly sunny.5 mph68%30.02 "Hg6 mi
3:00 PM52 °FScattered clouds.3 mph62%30.02 "Hg6 mi
2:00 PM53 °FScattered clouds.6 mph57%30.01 "Hg6 mi
1:00 PM52 °FScattered clouds.7 mph54%30.02 "Hg6 mi
12:00 PM51 °FScattered clouds.7 mph55%30.01 "Hg6 mi
11:00 AM48 °FScattered clouds.5 mph59%30.02 "Hg6 mi
10:00 AM47 °FScattered clouds.5 mph57%30.01 "Hg6 mi
Weather by CustomWeather, © 2014

See weather overviewHow to use our weather pages